Location: Dürabuch
(48.2640°N, 11.2185°E)
Time: 18:35:54
(UTC+00:00)

CZ-2D R/B - Pass Details

Date: 28 May 2025
Orbit: 790 x 841 km, 98.8° (Epoch: 16 June)

Event Time Altitude Azimuth Distance (km) Brightness Sun altitude
Rises 00:13:20 0° 29° (NNE) 3,409 6.8 -18.9°
Reaches altitude 10° 00:16:43 10° 51° (NE) 2,467 5.4 -18.8°
Maximum altitude 00:19:59 16° 88° (E) 2,061 4.4 -18.6°
Drops below altitude 10° 00:23:15 10° 125° (SE) 2,447 4.4 -18.5°
Enters shadow 00:24:39 - 136° (SE) 2,792 4.6 -18.4°
